Location: Erdweis
(48.5167°N, 15.3500°E)
Time: 01:36:16
(UTC+00:00)

Cosmos 2082 Rocket - Pass Details

Date: 18 September 2020
Orbit: 834 x 853 km, 71.0° (Epoch: 29 October)

Event Time Altitude Azimuth Distance (km) Brightness Sun altitude
Rises 18:56:02 0° 336° (NNW) 3,393 6.1 -18.7°
Reaches altitude 10° 18:59:20 10° 356° (N) 2,456 5.0 -19.2°
Maximum altitude 19:03:05 18° 38° (NE) 1,956 4.0 -19.8°
Enters shadow 19:04:42 16° 59° (ENE) 2,057 3.9 -20.0°
